Torna al catalogo

FENGYUN 1C DEB

AttivoSSO
NORAD 31805·DEBRIS·🇨🇳 China

Lanciato May 10, 1999 da Taiyuan Satellite Launch Center

Loading…

Prossimi Passaggi (prossime 24 ore)

TLE

In scadenzaSource: Space-Track

Epoca: Sep 10, 2026, 03:40 UTC

1 31805U 99025CGT 26253.15334821  .00003769  00000-0  96810-3 0  9999
2 31805  98.3857 222.6438 0433726 105.7738 259.1695 14.06674394661758

Traccia FENGYUN 1C DEB in tempo reale con AllMySat

Download on the App Store